Home > Weather > Navi Mumbai > Past weeks

Flag for India Past Weather in Navi Mumbai, Maharashtra, India — Yesterday and Last 2 Weeks

Now
93 °F

Scattered clouds.


Feels Like: 110 °F
Forecast: 83 / 93 °F
Wind: 12 mph from Southwest

Location: Mumbai / Santacruz

Current Time: May 26, 2016 at 12:37:57 PM

Latest Report: May 26, 2016 at 12:00 PM


Visibility: 3 mi

Pressure: 29.80 "Hg

Humidity: 63%

Dew Point: 79 °F

Location of Navi MumbaiLocation

Past Weather in Navi Mumbai — Graph

°F

Navi Mumbai Temperature Yesterday

Maximum temperature yesterday: 93 °F (at 12:30 PM)
Minimum temperature yesterday: 86 °F (at 2:30 AM)
Average temperature yesterday: 89 °F

High & Low Weather Summary for the Past Weeks

 TemperatureHumidityPressure
High93 °F (May 19, 12:30 PM)84% (May 12, 1:00 AM)29.83 "Hg (May 12, 1:00 AM)
Low84 °F (May 12, 1:00 AM)55% (May 11, 3:30 PM)29.53 "Hg (May 18, 4:30 PM)
Average88 °F74%29.71 "Hg
* Reported May 11 11:30 AM — May 26 11:30 AM, Navi Mumbai, Weather by CustomWeather, © 2016

Note: Actual official high and low records may vary slightly from our data, if they occured in-between our weather recording intervals... More about our weather records

Advertising

Navi Mumbai Weather History for the Previous 24 Hours

Scroll right to see more
 ConditionsComfort  
Time TempWeatherWind HumidityBarometerVisibility
11:30 AM
Thu, May 26
91 °FScattered clouds.9 mph63%29.77 "Hg3 mi
11:00 AM91 °FScattered clouds.12 mph63%29.77 "Hg3 mi
10:30 AM90 °FScattered clouds.14 mph67%29.77 "Hg3 mi
10:00 AM90 °FScattered clouds.12 mph67%29.80 "Hg3 mi
9:30 AM90 °FScattered clouds.10 mph71%29.77 "Hg3 mi
9:00 AM90 °FScattered clouds.12 mph71%29.77 "Hg3 mi
8:30 AM88 °FScattered clouds.7 mph75%29.77 "Hg3 mi
8:00 AM86 °FScattered clouds.8 mph75%29.77 "Hg3 mi
7:30 AM88 °FScattered clouds.9 mph70%29.77 "Hg3 mi
7:00 AM88 °FScattered clouds.7 mph70%29.74 "Hg3 mi
6:30 AM86 °FScattered clouds.7 mph75%29.74 "Hg3 mi
6:00 AM86 °FPassing clouds.9 mph75%29.71 "Hg2 mi
5:30 AM86 °FPassing clouds.10 mph79%29.71 "Hg2 mi
5:00 AM86 °FPassing clouds.8 mph79%29.71 "Hg2 mi
4:30 AM86 °FPassing clouds.7 mph79%29.71 "Hg2 mi
4:00 AM86 °FPassing clouds.9 mph79%29.71 "Hg2 mi
3:30 AM86 °FPassing clouds.9 mph79%29.71 "Hg2 mi
3:00 AM86 °FPassing clouds.13 mph79%29.71 "Hg2 mi
2:30 AM86 °FPassing clouds.10 mph79%29.71 "Hg2 mi
2:00 AM86 °FPassing clouds.12 mph79%29.71 "Hg2 mi
1:30 AM86 °FPassing clouds.12 mph79%29.71 "Hg2 mi
1:00 AM86 °FPassing clouds.9 mph84%29.71 "Hg2 mi
12:30 AM88 °FPassing clouds.10 mph75%29.74 "Hg2 mi
12:00 AM88 °FPassing clouds.10 mph75%29.74 "Hg2 mi
11:30 PM
Wed, May 25
88 °FPassing clouds.9 mph79%29.74 "Hg2 mi
11:00 PM86 °FThunderstorms. Passing clouds.9 mph84%29.74 "Hg2 mi
10:30 PM86 °FPassing clouds.7 mph84%29.74 "Hg2 mi
10:00 PM86 °FLight rain. Passing clouds.12 mph84%29.74 "Hg2 mi
9:30 PM88 °FPassing clouds.12 mph75%29.74 "Hg2 mi
9:00 PM88 °FPassing clouds.9 mph75%29.71 "Hg2 mi
8:30 PM88 °FPassing clouds.14 mph75%29.71 "Hg2 mi
8:00 PM88 °FPassing clouds.10 mph75%29.71 "Hg2 mi
7:30 PM88 °FScattered clouds.8 mph75%29.71 "Hg2 mi
7:00 PM90 °FScattered clouds.14 mph71%29.71 "Hg2 mi
6:30 PM90 °FScattered clouds.15 mph71%29.68 "Hg3 mi
6:00 PM90 °FScattered clouds.13 mph71%29.68 "Hg3 mi
5:30 PM90 °FScattered clouds.8 mph71%29.68 "Hg3 mi
5:00 PM90 °FScattered clouds.12 mph71%29.68 "Hg4 mi
4:30 PM91 °FScattered clouds.8 mph67%29.68 "Hg4 mi
4:00 PM91 °FScattered clouds.12 mph67%29.68 "Hg4 mi
3:30 PM93 °FScattered clouds.8 mph63%29.71 "Hg4 mi
3:00 PM91 °FScattered clouds.8 mph63%29.71 "Hg4 mi
2:30 PM91 °FScattered clouds.8 mph67%29.71 "Hg4 mi
2:00 PM91 °FScattered clouds.9 mph63%29.74 "Hg4 mi
1:30 PM93 °FPassing clouds.10 mph63%29.74 "Hg4 mi
1:00 PM91 °FScattered clouds.12 mph67%29.74 "Hg4 mi
12:30 PM93 °FScattered clouds.13 mph63%29.77 "Hg4 mi
12:00 PM91 °FScattered clouds.10 mph67%29.77 "Hg4 mi
Weather by CustomWeather, © 2016

See weather overviewHow to use our weather pages